SQ9NFI-4 Weather Reports


Display with metric or nautical units.
time (UTC)temp
F
wind
direction
speed
MPH
gust
MPH
rain 1hr
in
rain 24hr
in
rain mn
in
humidity
%
barometer
mb
20260903174403 60 326 0.0 0.0 0.00 0.00 0.00 93 1018.0
20260903173903 60 326 0.0 0.0 0.00 0.00 0.00 91 1018.0
20260903173403 61 326 0.0 0.0 0.00 0.00 0.00 91 1018.0
20260903172903 62 326 0.0 0.0 0.00 0.00 0.00 91 1018.0
20260903172403 63 321 0.0 0.0 0.00 0.00 0.00 85 1018.0
20260903171903 64 321 0.0 0.0 0.00 0.00 0.00 84 1018.0
20260903171403 64 320 0.0 0.0 0.00 0.00 0.00 83 1018.0
20260903170903 65 321 0.0 0.0 0.00 0.00 0.00 83 1018.0
20260903170403 65 322 0.0 0.0 0.00 0.00 0.00 80 1018.0
20260903165903 67 315 0.0 1.0 0.00 0.00 0.00 79 1018.0
20260903165403 68 323 0.0 0.0 0.00 0.00 0.00 78 1018.0
20260903164903 68 320 0.0 0.0 0.00 0.00 0.00 77 1018.0
20260903164403 69 320 0.0 0.0 0.00 0.00 0.00 77 1018.0
20260903163903 69 320 0.0 0.0 0.00 0.00 0.00 73 1018.0
20260903163403 70 320 0.0 0.0 0.00 0.00 0.00 73 1018.0
20260903162903 70 320 0.0 0.0 0.00 0.00 0.00 70 1018.0
20260903162403 71 321 0.0 1.0 0.00 0.00 0.00 66 1018.0
20260903161903 71 275 1.0 1.0 0.00 0.00 0.00 62 1018.0
20260903161403 71 303 4.0 5.0 0.00 0.00 0.00 62 1018.0
20260903160903 71 326 3.0 3.0 0.00 0.00 0.00 61 1018.0
20260903160403 72 315 1.0 2.0 0.00 0.00 0.00 60 1018.0
20260903155903 72 315 1.0 1.0 0.00 0.00 0.00 59 1018.0
20260903155403 73 318 2.0 3.0 0.00 0.00 0.00 57 1018.0
20260903154903 73 308 3.0 3.0 0.00 0.00 0.00 56 1018.0
20260903154403 73 341 2.0 2.0 0.00 0.00 0.00 57 1018.0
20260903153903 73 290 3.0 3.0 0.00 0.00 0.00 55 1018.0
20260903153403 73 320 8.0 10.0 0.00 0.00 0.00 54 1018.0
20260903152903 73 329 6.0 7.0 0.00 0.00 0.00 55 1018.0
20260903152403 73 322 5.0 7.0 0.00 0.00 0.00 55 1018.0
20260903151903 73 325 4.0 6.0 0.00 0.00 0.00 56 1018.0
20260903151403 73 345 8.0 11.0 0.00 0.00 0.00 56 1018.0
20260903150903 72 342 5.0 6.0 0.00 0.00 0.00 58 1018.0
20260903150403 71 309 2.0 3.0 0.00 0.00 0.00 59 1018.0
20260903145903 71 315 2.0 2.0 0.00 0.00 0.00 60 1018.0
20260903145403 71 315 2.0 2.0 0.00 0.00 0.00 59 1018.0
20260903144903 71 310 3.0 3.0 0.00 0.00 0.00 58 1018.0
20260903144403 72 310 2.0 3.0 0.00 0.00 0.00 57 1018.0
20260903143903 72 307 3.0 4.0 0.00 0.00 0.00 56 1018.0
20260903143403 73 301 3.0 5.0 0.00 0.00 0.00 56 1018.0
20260903142903 73 273 7.0 9.0 0.00 0.00 0.00 54 1018.0
20260903142403 74 298 2.0 2.0 0.00 0.00 0.00 54 1018.0
20260903141903 74 283 3.0 5.0 0.00 0.00 0.00 54 1018.0
20260903141403 75 262 7.0 10.0 0.00 0.00 0.00 53 1018.0
20260903140903 76 316 4.0 7.0 0.00 0.00 0.00 53 1018.0
20260903140403 75 306 3.0 4.0 0.00 0.00 0.00 55 1018.0
20260903135903 74 294 3.0 5.0 0.00 0.00 0.00 55 1018.0
20260903135403 74 333 4.0 4.0 0.00 0.00 0.00 55 1018.0
20260903134903 74 327 6.0 6.0 0.00 0.00 0.00 55 1018.0
20260903134403 74 278 5.0 6.0 0.00 0.00 0.00 55 1018.0
20260903133903 75 321 3.0 4.0 0.00 0.00 0.00 55 1018.0
20260903133403 76 323 2.0 3.0 0.00 0.00 0.00 62 1018.3
20260903132903 76 297 1.0 2.0 0.00 0.00 0.00 56 1018.3
20260903132403 75 306 4.0 5.0 0.00 0.00 0.00 57 1018.3
20260903131903 74 298 3.0 3.0 0.00 0.00 0.00 57 1018.3
20260903131403 75 196 1.0 1.0 0.00 0.00 0.00 55 1018.3
20260903130903 74 320 1.0 1.0 0.00 0.00 0.00 59 1018.3
20260903130403 74 278 6.0 8.0 0.00 0.00 0.00 58 1018.3
20260903125903 74 331 2.0 4.0 0.00 0.00 0.00 55 1019.0
20260903125403 74 326 5.0 6.0 0.00 0.00 0.00 56 1019.0
20260903124903 74 311 2.0 3.0 0.00 0.00 0.00 56 1019.0
20260903124403 74 336 3.0 3.0 0.00 0.00 0.00 57 1019.0
20260903123903 75 320 0.0 1.0 0.00 0.00 0.00 56 1019.0
20260903123403 75 334 4.0 6.0 0.00 0.00 0.00 54 1019.0
20260903122903 75 330 2.0 2.0 0.00 0.00 0.00 57 1019.0
20260903122403 74 308 6.0 8.0 0.00 0.00 0.00 59 1019.0
20260903121903 72 318 4.0 5.0 0.00 0.00 0.00 60 1019.0
20260903121403 72 333 2.0 2.0 0.00 0.00 0.00 61 1019.3
20260903120903 73 324 1.0 1.0 0.00 0.00 0.00 58 1019.3
20260903120403 73 304 3.0 3.0 0.00 0.00 0.00 58 1019.3
20260903115903 73 326 1.0 1.0 0.00 0.00 0.00 59 1019.3
20260903115403 73 325 7.0 10.0 0.00 0.00 0.00 59 1019.3
20260903114903 74 315 7.0 7.0 0.00 0.00 0.00 57 1019.3
20260903114403 74 19 4.0 4.0 0.00 0.00 0.00 57 1019.3
20260903113903 74 327 6.0 8.0 0.00 0.00 0.00 57 1019.3
20260903113403 73 321 3.0 5.0 0.00 0.00 0.00 60 1019.3
20260903112903 73 323 2.0 2.0 0.00 0.00 0.00 57 1019.3
20260903112403 74 321 0.0 3.0 0.00 0.00 0.00 58 1019.6
20260903111903 73 320 6.0 9.0 0.00 0.00 0.00 58 1019.6
20260903111402 74 337 2.0 3.0 0.00 0.00 0.00 59 1019.6
20260903110903 73 320 1.0 2.0 0.00 0.00 0.00 62 1019.6
20260903110403 73 333 3.0 4.0 0.00 0.00 0.00 65 1019.6
20260903105903 72 314 2.0 2.0 0.00 0.00 0.00 63 1019.6
20260903105403 71 331 3.0 3.0 0.00 0.00 0.00 63 1019.6
20260903104903 71 331 3.0 6.0 0.00 0.00 0.00 63 1019.6
20260903104403 71 335 4.0 4.0 0.00 0.00 0.00 63 1019.6
20260903103903 71 320 4.0 9.0 0.00 0.00 0.00 63 1019.6
20260903103403 72 330 4.0 7.0 0.00 0.00 0.00 62 1019.6
20260903102903 73 320 3.0 6.0 0.00 0.00 0.00 63 1019.6
20260903102403 74 338 4.0 4.0 0.00 0.00 0.00 58 1020.0
20260903101903 73 302 2.0 3.0 0.00 0.00 0.00 58 1020.0
20260903101403 73 233 3.0 4.0 0.00 0.00 0.00 56 1020.0
20260903100903 74 226 4.0 7.0 0.00 0.00 0.00 56 1020.0
20260903100403 74 305 2.0 2.0 0.00 0.00 0.00 56 1020.0
20260903095903 75 329 11.0 11.0 0.00 0.00 0.00 56 1020.0
20260903095403 74 315 7.0 9.0 0.00 0.00 0.00 56 1020.0
20260903094903 75 318 3.0 6.0 0.00 0.00 0.00 55 1020.0
20260903094403 74 323 3.0 4.0 0.00 0.00 0.00 55 1020.0
20260903093902 74 307 6.0 8.0 0.00 0.00 0.00 55 1020.0
20260903093403 76 270 2.0 6.0 0.00 0.00 0.00 54 1020.0
20260903092903 76 297 5.0 5.0 0.00 0.00 0.00 54 1020.0
20260903092403 74 314 7.0 9.0 0.00 0.00 0.00 54 1020.0
20260903091903 76 273 5.0 5.0 0.00 0.00 0.00 53 1020.0
20260903091403 76 250 5.0 5.0 0.00 0.00 0.00 52 1020.0
20260903090902 74 211 3.0 6.0 0.00 0.00 0.00 58 1020.0
20260903090403 74 275 6.0 7.0 0.00 0.00 0.00 55 1020.0
20260903085902 74 330 4.0 4.0 0.00 0.00 0.00 58 1020.3
20260903085403 74 311 4.0 5.0 0.00 0.00 0.00 56 1020.3
20260903084903 74 317 4.0 6.0 0.00 0.00 0.00 57 1020.0
20260903084403 73 133 6.0 8.0 0.00 0.00 0.00 57 1020.0
20260903083903 74 295 3.0 3.0 0.00 0.00 0.00 57 1020.0
20260903083402 73 204 4.0 6.0 0.00 0.00 0.00 60 1020.0
20260903082902 73 285 1.0 1.0 0.00 0.00 0.00 59 1020.0
20260903082402 72 344 1.0 5.0 0.00 0.00 0.00 59 1020.3
20260903081902 72 293 4.0 8.0 0.00 0.00 0.00 60 1020.3
20260903081402 72 322 6.0 8.0 0.00 0.00 0.00 57 1020.3
20260903080902 73 334 2.0 2.0 0.00 0.00 0.00 60 1020.3
20260903080403 72 326 2.0 5.0 0.00 0.00 0.00 63 1020.3
20260903075902 71 339 3.0 6.0 0.00 0.00 0.00 59 1020.3
20260903075403 73 297 1.0 2.0 0.00 0.00 0.00 64 1020.3
20260903074903 73 325 1.0 3.0 0.00 0.00 0.00 62 1020.0
20260903074402 72 322 1.0 2.0 0.00 0.00 0.00 61 1020.0
20260903073903 73 323 1.0 1.0 0.00 0.00 0.00 59 1020.0
20260903073403 71 341 1.0 1.0 0.00 0.00 0.00 61 1020.0
20260903072903 72 326 0.0 1.0 0.00 0.00 0.00 62 1020.0
20260903072403 71 275 2.0 3.0 0.00 0.00 0.00 63 1020.0
20260903071903 71 318 1.0 1.0 0.00 0.00 0.00 70 1020.0
20260903071403 70 337 1.0 1.0 0.00 0.00 0.00 65 1020.0
20260903070903 69 336 0.0 1.0 0.00 0.00 0.00 67 1020.0
20260903070403 69 292 5.0 6.0 0.00 0.00 0.00 73 1020.0
20260903065903 68 277 2.0 3.0 0.00 0.00 0.00 72 1020.0
20260903065402 67 286 2.0 2.0 0.00 0.00 0.00 75 1020.0
20260903064902 67 190 3.0 4.0 0.00 0.00 0.00 76 1020.0
20260903064402 66 222 3.0 3.0 0.00 0.00 0.00 80 1020.0
20260903063902 65 244 5.0 7.0 0.00 0.00 0.00 79 1020.0
20260903063402 64 270 3.0 5.0 0.00 0.00 0.00 82 1020.0
20260903062902 64 223 4.0 4.0 0.00 0.00 0.00 84 1020.0
20260903062402 65 290 1.0 2.0 0.00 0.00 0.00 83 1020.0
20260903061902 65 333 0.0 0.0 0.00 0.00 0.00 84 1020.0
20260903061402 62 328 0.0 0.0 0.00 0.00 0.00 91 1020.0
20260903060902 60 328 0.0 0.0 0.00 0.00 0.00 96 1020.0
20260903060402 60 327 0.0 0.0 0.00 0.00 0.00 99 1020.0
20260903055902 58 329 0.0 0.0 0.00 0.00 0.00 99 1020.0
20260903055402 58 328 0.0 0.0 0.00 0.00 0.00 99 1020.0
20260903054902 57 329 0.0 0.0 0.00 0.00 0.00 99 1020.0
20260903054402 57 338 1.0 1.0 0.00 0.00 0.00 99 1020.0
20260903053903 57 325 0.0 0.0 0.00 0.00 0.00 99 1020.0
20260903053402 57 325 0.0 0.0 0.00 0.00 0.00 99 1020.0
20260903052902 57 324 0.0 0.0 0.00 0.00 0.00 99 1020.0
20260903052402 57 324 0.0 0.0 0.00 0.00 0.00 99 1020.0
20260903051902 57 324 0.0 0.0 0.00 0.00 0.00 99 1020.0
20260903051402 57 324 0.0 0.0 0.00 0.00 0.00 99 1020.0
20260903050902 57 326 0.0 0.0 0.00 0.00 0.00 99 1020.0
20260903050402 56 330 0.0 0.0 0.00 0.00 0.00 99 1020.0
20260903045902 56 331 0.0 0.0 0.00 0.00 0.00 99 1020.0
20260903045402 56 331 0.0 0.0 0.00 0.00 0.00 99 1020.0
20260903044902 55 331 0.0 0.0 0.00 0.00 0.00 99 1020.0
20260903044402 55 331 0.0 0.0 0.00 0.00 0.00 99 1020.0
20260903043902 55 331 0.0 0.0 0.00 0.00 0.00 99 1020.0
20260903043402 55 331 0.0 0.0 0.00 0.00 0.00 99 1020.0
20260903042902 55 331 0.0 0.0 0.00 0.00 0.00 99 1020.0
20260903042402 56 331 0.0 0.0 0.00 0.00 0.00 99 1020.0
20260903041902 56 331 0.0 0.0 0.05 0.00 0.00 99 1020.0
20260903041402 56 331 0.0 0.0 0.05 0.00 0.00 99 1020.0
20260903040902 56 331 0.0 0.0 0.00 0.00 0.00 99 1020.0
20260903040402 56 324 0.0 0.0 0.00 0.00 0.00 99 1020.0
20260903035902 56 326 0.0 0.0 0.00 0.00 0.00 99 1020.0
20260903035402 56 325 0.0 0.0 0.00 0.00 0.00 99 1020.0
20260903034902 56 324 1.0 1.0 0.00 0.00 0.00 99 1020.0
20260903034402 56 334 0.0 0.0 0.00 0.00 0.00 99 1020.0
20260903033902 56 334 0.0 0.0 0.00 0.00 0.00 99 1020.0
20260903033402 56 334 0.0 1.0 0.00 0.00 0.00 99 1020.0
20260903032902 56 329 0.0 0.0 0.00 0.00 0.00 99 1020.0
20260903032402 56 323 0.0 1.0 0.00 0.00 0.00 99 1020.0
20260903031902 57 308 1.0 1.0 0.00 0.00 0.00 99 1020.0
20260903031402 57 336 0.0 0.0 0.00 0.00 0.00 99 1020.0
20260903030902 57 341 0.0 1.0 0.00 0.00 0.00 99 1020.0
20260903030402 57 341 1.0 1.0 0.00 0.00 0.00 99 1020.0
20260903025902 58 327 2.0 4.0 0.00 0.00 0.00 99 1020.0
20260903025402 58 341 1.0 2.0 0.00 0.00 0.00 99 1020.0
20260903024902 58 331 1.0 1.0 0.00 0.00 0.00 99 1020.3
20260903024402 58 327 1.0 1.0 0.00 0.00 0.00 98 1020.3
20260903023902 58 343 2.0 2.0 0.00 0.00 0.00 98 1020.3
20260903023402 58 352 2.0 3.0 0.00 0.00 0.00 99 1020.0
20260903022902 58 344 1.0 2.0 0.00 0.00 0.00 99 1020.0
20260903022402 57 348 3.0 6.0 0.00 0.00 0.00 99 1020.0
20260903021902 56 298 11.0 21.0 0.00 0.00 0.00 99 1020.0
20260903021402 53 322 4.0 6.0 0.00 0.00 0.00 99 1020.0
20260903020902 53 329 3.0 3.0 0.00 0.00 0.00 99 1020.0
20260903020402 53 327 0.0 0.0 0.00 0.00 0.00 99 1020.0
20260903015902 53 327 0.0 0.0 0.00 0.00 0.00 99 1020.0
20260903015402 53 328 0.0 0.0 0.00 0.00 0.00 99 1020.0
20260903014902 53 328 0.0 0.0 0.00 0.00 0.00 99 1020.0
20260903014402 53 328 0.0 0.0 0.00 0.00 0.00 99 1020.0
20260903013902 53 327 0.0 0.0 0.00 0.00 0.00 99 1020.0
20260903013402 53 328 0.0 0.0 0.00 0.00 0.00 99 1020.0
20260903012902 53 328 0.0 0.0 0.00 0.00 0.00 99 1020.0
20260903012402 53 328 0.0 0.0 0.00 0.00 0.00 99 1020.0
20260903011902 53 328 0.0 0.0 0.00 0.00 0.00 99 1020.0
20260903011402 53 328 0.0 0.0 0.00 0.00 0.00 99 1020.0
20260903010902 53 325 0.0 0.0 0.00 0.00 0.00 99 1020.0
20260903010402 53 325 0.0 0.0 0.00 0.00 0.00 99 1020.0
20260903005902 53 325 0.0 0.0 0.00 0.00 0.00 99 1020.0
20260903005402 53 325 0.0 0.0 0.00 0.00 0.00 99 1020.0
20260903004902 53 325 0.0 0.0 0.00 0.00 0.00 99 1020.0
20260903004402 53 325 0.0 0.0 0.00 0.00 0.00 99 1020.0
20260903003902 53 325 0.0 0.0 0.00 0.00 0.00 99 1020.0
20260903003402 53 324 0.0 0.0 0.00 0.00 0.00 99 1020.0
20260903002902 53 325 0.0 0.0 0.00 0.00 0.00 99 1020.0
20260903002402 53 325 0.0 0.0 0.00 0.00 0.00 99 1020.0
20260903001902 53 325 0.0 0.0 0.00 0.00 0.00 99 1020.0
20260903001402 53 325 0.0 0.0 0.00 0.00 0.00 99 1020.0
20260903000902 54 324 0.0 0.0 0.00 0.00 0.00 99 1020.0
20260903000402 54 324 0.0 0.0 0.00 0.00 0.00 99 1020.0
20260902235902 53 325 0.0 0.0 0.00 0.00 0.00 99 1020.0
20260902235402 54 325 0.0 0.0 0.00 0.00 0.00 99 1020.0
20260902234902 54 324 0.0 0.0 0.00 0.00 0.00 99 1020.0
20260902234402 54 323 0.0 0.0 0.00 0.00 0.00 99 1020.0
20260902233902 54 324 0.0 0.0 0.00 0.00 0.00 99 1020.0
20260902233402 54 324 0.0 0.0 0.00 0.00 0.00 99 1020.0
20260902232902 54 324 0.0 0.0 0.00 0.00 0.00 99 1020.0
20260902232402 54 324 0.0 0.0 0.00 0.00 0.00 99 1020.3
20260902231902 53 321 0.0 0.0 0.00 0.00 0.00 99 1020.3
20260902231402 53 313 0.0 0.0 0.00 0.00 0.00 99 1020.3
20260902230902 53 333 0.0 0.0 0.00 0.00 0.00 99 1020.3
20260902230402 53 335 0.0 0.0 0.00 0.00 0.00 99 1020.3
20260902225902 53 332 0.0 0.0 0.00 0.00 0.00 99 1020.3
20260902225402 53 333 0.0 0.0 0.00 0.00 0.00 99 1020.3
20260902224902 52 332 0.0 0.0 0.00 0.00 0.00 99 1020.3
20260902224402 52 332 0.0 0.0 0.00 0.00 0.00 99 1020.3
20260902223902 52 333 0.0 0.0 0.00 0.00 0.00 99 1020.3
20260902223402 53 333 0.0 0.0 0.00 0.00 0.00 99 1020.3
20260902222902 52 332 0.0 0.0 0.00 0.00 0.00 99 1020.3
20260902222402 52 332 0.0 0.0 0.00 0.00 0.00 99 1020.3
20260902221902 52 332 0.0 0.0 0.00 0.00 0.00 99 1020.3
20260902221402 52 332 0.0 0.0 0.00 0.00 0.00 99 1020.0
20260902220902 53 332 0.0 0.0 0.00 0.00 0.00 99 1020.0
20260902220402 53 332 0.0 0.0 0.00 0.00 0.00 99 1020.0
20260902215902 53 332 0.0 0.0 0.00 0.00 0.00 99 1020.3
20260902215402 53 332 0.0 0.0 0.00 0.00 0.00 99 1020.3
20260902214902 53 332 0.0 0.0 0.00 0.00 0.00 99 1020.3
20260902214402 53 332 0.0 0.0 0.00 0.00 0.00 99 1020.3
20260902213902 53 332 0.0 0.0 0.00 0.00 0.00 99 1020.3
20260902213402 53 332 0.0 0.0 0.00 0.00 0.00 99 1020.3
20260902212902 53 332 0.0 0.0 0.00 0.00 0.00 99 1020.3
20260902212402 53 332 0.0 0.0 0.00 0.00 0.00 99 1020.3
20260902211902 53 332 0.0 0.0 0.00 0.00 0.00 99 1020.3
20260902211402 53 332 0.0 0.0 0.00 0.00 0.00 99 1020.3
20260902210902 53 332 0.0 0.0 0.00 0.00 0.00 99 1020.3
20260902210402 54 332 0.0 0.0 0.00 0.00 0.00 99 1020.3
20260902205902 54 332 0.0 0.0 0.00 0.00 0.00 99 1020.3
20260902205402 54 330 0.0 0.0 0.00 0.00 0.00 99 1020.3
20260902204902 54 330 0.0 0.0 0.00 0.00 0.00 99 1020.3
20260902204402 55 331 0.0 0.0 0.00 0.00 0.00 99 1020.3
20260902203902 55 330 0.0 0.0 0.00 0.00 0.00 99 1020.3
20260902203402 55 329 0.0 0.0 0.00 0.00 0.00 99 1020.0
20260902202902 55 330 0.0 0.0 0.00 0.00 0.00 99 1020.0
20260902202402 55 330 0.0 0.0 0.00 0.00 0.00 99 1020.0
20260902201902 55 330 0.0 0.0 0.00 0.00 0.00 99 1020.0
20260902201402 55 331 0.0 0.0 0.00 0.00 0.00 99 1020.0
20260902200902 55 331 0.0 0.0 0.00 0.00 0.00 99 1020.0
20260902200402 56 328 0.0 0.0 0.00 0.00 0.00 99 1020.0
20260902195902 56 330 0.0 0.0 0.00 0.00 0.00 99 1020.0
20260902195402 56 329 0.0 0.0 0.00 0.00 0.00 99 1020.0
20260902194902 56 327 0.0 0.0 0.00 0.00 0.00 99 1020.3
20260902194402 57 329 0.0 0.0 0.00 0.00 0.00 99 1020.3
20260902193902 57 327 0.0 0.0 0.00 0.00 0.00 99 1020.3
20260902193402 57 324 0.0 0.0 0.00 0.00 0.00 99 1020.3
20260902192902 57 324 0.0 0.0 0.00 0.00 0.00 99 1020.3
20260902192402 57 324 0.0 0.0 0.00 0.00 0.00 99 1020.3
20260902191902 57 321 0.0 0.0 0.00 0.00 0.00 99 1020.3
20260902191403 57 328 1.0 1.0 0.00 0.00 0.00 99 1020.3
20260902190902 58 329 0.0 0.0 0.00 0.00 0.00 99 1020.3
20260902190402 58 329 0.0 0.0 0.00 0.00 0.00 99 1020.3
20260902185902 58 329 0.0 0.0 0.00 0.00 0.00 99 1020.3
20260902185402 58 329 0.0 0.0 0.00 0.00 0.00 99 1020.3
20260902184902 58 329 0.0 0.0 0.00 0.00 0.00 99 1020.3
20260902184402 58 329 0.0 0.0 0.00 0.00 0.00 99 1020.3
20260902183902 58 328 0.0 0.0 0.00 0.00 0.00 99 1020.3
20260902183402 59 329 0.0 0.0 0.00 0.00 0.00 99 1020.3
20260902182902 59 325 0.0 0.0 0.00 0.00 0.00 98 1020.3
20260902182402 60 325 0.0 0.0 0.00 0.00 0.00 98 1020.0
20260902181902 60 325 0.0 0.0 0.00 0.00 0.00 97 1020.0
20260902181402 60 325 0.0 0.0 0.00 0.00 0.00 97 1020.0
20260902180902 60 325 0.0 0.0 0.00 0.00 0.00 97 1020.0
20260902180402 60 325 0.0 0.0 0.00 0.00 0.00 96 1020.0
20260902175902 61 325 0.0 0.0 0.00 0.00 0.00 96 1020.0
20260902175402 61 325 0.0 0.0 0.00 0.00 0.00 95 1020.0
20260902174902 62 324 0.0 0.0 0.00 0.00 0.00 95 1020.0